Regional Weather Roundup
Issued by NWS

Home | Current Version | Previous Version | Text Only | Print | Product List | Glossary Off
Versions: 1 2 3 4 5 6 7 8 9 10 11 12 13 14 15 16 17 18 19 20 21 22 23 24 25 26 27 28 29 30 31 32 33 34 35 36 37 38 39 40 41 42 43 44 45 46 47 48 49 50

000
ASUS43 KBIS 301702
RWRND

NORTH DAKOTA REGIONAL WEATHER ROUNDUP
NATIONAL WEATHER SERVICE BISMARCK ND
1200 PM CDT THU MAR 30 2017

NOTE: "FAIR" INDICATES FEW OR NO CLOUDS BELOW 12,000 FEET WITH NO
SIGNIFICANT WEATHER AND/OR OBSTRUCTIONS TO VISIBILITY.


NDZ001>003-009>011-017-301800-
NORTHWEST NORTH DAKOTA

CITY           SKY/WX    TMP DP  RH WIND       PRES   REMARKS
WILLISTON      FAIR      55  40  56 SE6       29.70F
MINOT          CLOUDY    50  38  63 S12       29.76S
MINOT AFB      CLOUDY    48  39  69 S9        29.75S
$$

NDZ018>021-031>035-040>046-301800-
SOUTHWEST NORTH DAKOTA

CITY           SKY/WX    TMP DP  RH WIND       PRES   REMARKS
BISMARCK       CLOUDY    47  35  63 S16       29.84S
DICKINSON      CLOUDY    49  37  63 SE17      29.70F
GARRISON         N/A     47  36  65 S16       29.77S
HETTINGER ARPT CLOUDY    46  36  68 SE14      29.77S
$$

NDZ004>008-012>016-024-026-027-054-301800-
NORTHEAST NORTH DAKOTA

CITY           SKY/WX    TMP DP  RH WIND       PRES   REMARKS
GRAND FORKS    PTSUNNY   50  42  74 S16       29.91S
GRND FRKS AFB  SUNNY     51  40  67 S14       29.90F
DEVILS LAKE    CLOUDY    47  37  68 S16G24    29.85F
$$

NDZ022-023-025-028>030-036>039-047>053-301800-
SOUTHEAST NORTH DAKOTA

CITY           SKY/WX    TMP DP  RH WIND       PRES   REMARKS
FARGO          MOSUNNY   50  39  66 S7        29.92F
JAMESTOWN      PTSUNNY   45  37  73 S12       29.87F
$$




USA.gov is the U.S. government's official web portal to all federal, state and local government web resources and services.